TERRESTAR-1

Last updated on Sun Jul 06 2025 00:02:43 GMT+0000 (Coordinated Universal Time)

1 35496U 09035A 25186.54282350 -.00000045 00000+0 00000+0 0 9993 2 35496 4.9081 48.6799 0002538 45.6389 273.8570 1.00272276 58650
UTC large
Height (km)
Speed (km/s)
/
Latitude / Longitude
Inclination (degrees)
Orbital Period (minutes)
Azimuth
Elevation
Range (km)
Doppler Factor

Next 0 passes for location: London (51.5072 / 0.1276)

Sorry there are no passes over London.